Regional Weather Roundup
Issued by NWS Green Bay, WI

Home | Current Version | Previous Version | Graphics & Text | Print | Product List | Glossary Off
Versions: 1 2 3 4 5 6 7 8 9 10 11 12 13 14 15 16 17 18 19 20 21 22 23 24 25 26 27 28 29 30 31 32 33 34 35 36 37 38 39 40 41 42 43 44 45 46 47 48 49 50

000
ASUS43 KGRB 262359
RWRGRB

NORTH-CENTRAL AND NORTHEAST WISCONSIN REGIONAL WEATHER ROUNDUP
NATIONAL WEATHER SERVICE GREEN BAY WI
600 PM CST MON JAN 26 2015

WIZ005-009-010>012-018-019-270100-
NORTH CENTRAL WISCONSIN

CITY           SKY/WX    TMP DP  RH WIND       PRES   REMARKS
IRONWOOD       CLOUDY    21  19  93 S3        29.78R
MANITOWISH WTR NOT AVBL
ARBOR VITAE    NOT AVBL
EAGLE RIVER    NOT AVBL
LAND O LAKES   NOT AVBL
RHINELANDER    LGT SNOW  19  16  88 SE5       29.81R FOG
PHILLIPS       NOT AVBL
ANTIGO         NOT AVBL
TOMAHAWK       NOT AVBL
MERRILL        NOT AVBL
$$

WIZ013-073-270100-
NORTHEAST WISCONSIN

CITY           SKY/WX    TMP DP  RH WIND       PRES   REMARKS
IRON MOUNTAIN  FLURRIES  22  17  81 SE6       29.85R
MARINETTE      CLOUDY    25  21  86 SE15      29.89R
$$

WIZ017-030-035>037-045-270100-
CENTRAL WISCONSIN

CITY           SKY/WX    TMP DP  RH WIND       PRES   REMARKS
MEDFORD        NOT AVBL
WAUSAU         CLOUDY    21  18  88 SE6       29.82R
MOSINEE        NOT AVBL
MARSHFIELD     CLOUDY    23  20  88 S6        29.81R
WISC RAPIDS    FRZ RAIN  23  20  88 SE3       29.85R FOG
STEVENS POINT  NOT AVBL
WAUPACA        NOT AVBL
SHAWANO        NOT AVBL
CLINTONVILLE   NOT AVBL
$$

WIZ038-039-048-051-270100-
FOX VALLEY

CITY           SKY/WX    TMP DP  RH WIND       PRES   REMARKS
NWS GREEN BAY  CLOUDY    25  20  81 SE6       29.88R
APPLETON       CLOUDY    25  19  80 S7        29.87R
OSHKOSH        CLOUDY    24  20  84 SE7       29.86R
FOND DU LAC    LGT SNOW  25  20  81 SE9       29.86R
$$

WIZ022-050-052-270100-
EAST CENTRAL WISCONSIN

CITY           SKY/WX    TMP DP  RH WIND       PRES   REMARKS
STURGEON BAY   CLOUDY    25  18  74 SE9       29.91R
MANITOWOC      NOT AVBL
SHEBOYGAN      CLOUDY    26  20  77 S6        29.88R
$$

LMZ563-521-522-541>543-270100-
LAKESHORE

STATION/POSITION TIME  TEMP    WIND        PRES    VSBY  WAVE
                       AIR SEA DIR/SP/G                  HT/PER
                 (UTC) (F)     (DEG/KT/KT) (MB)    (MI)  (FT/S)
SHEBOYGAN LKSHOR 2300   27     170/ 14/ 15 1012.9R
KEWAUNEE LKSHORE 2300   27     210/  5/  9 1011.4R
NORTHPORT PIER   2300   25     130/ 14/ 18 1012.9S
CHAMBERS ISLAND  2300   24     130/  5/ 11 1012.5S
MENOMINEE LKSHOR 2300   25     110/ 11     1012.9R
$$



USA.gov is the U.S. government's official web portal to all federal, state and local government web resources and services.